Time,TemperatureF,DewpointF,PressureIn,WindDirection,WindDirectionDegrees,WindSpeedMPH,WindSpeedGustMPH,Humidity,HourlyPrecipIn,Conditions,Clouds,dailyrainin,SoftwareType,DateUTC
2013-02-12 00:00:00,51.8,0.0,0.00,NNE,26,2.2,6.5,0,0.00,,,0.00,WUHU216PEETBRO,2013-02-12 06:00:00,
2013-02-12 00:05:00,50.9,0.0,0.00,ENE,67,3.5,9.8,0,0.00,,,0.00,WUHU216PEETBRO,2013-02-12 06:05:00,
2013-02-12 00:10:00,51.1,0.0,0.00,North,11,2.2,9.8,0,0.00,,,0.00,WUHU216PEETBRO,2013-02-12 06:10:00,
2013-02-12 00:15:00,51.1,0.0,0.00,NNE,15,2.0,9.8,0,0.00,,,0.00,WUHU216PEETBRO,2013-02-12 06:15:00,
2013-02-12 00:20:00,51.4,0.0,0.00,East,83,3.7,7.6,0,0.00,,,0.00,WUHU216PEETBRO,2013-02-12 06:20:00,
2013-02-12 00:25:00,51.7,0.0,0.00,ESE,119,4.0,7.6,0,0.00,,,0.00,WUHU216PEETBRO,2013-02-12 06:25:00,
2013-02-12 00:30:00,50.9,0.0,0.00,NNE,16,3.0,6.6,0,0.00,,,0.00,WUHU216PEETBRO,2013-02-12 06:30:00,
2013-02-12 00:33:00,51.4,0.0,0.00,NNE,15,3.4,6.6,0,0.00,,,0.00,WUHU216PEETBRO,2013-02-12 06:33:00,
2013-02-12 00:38:00,51.1,0.0,0.00,NNE,21,1.7,6.8,0,0.00,,,0.00,WUHU216PEETBRO,2013-02-12 06:38:00,
2013-02-12 00:43:00,50.9,0.0,0.00,SE,125,2.6,7.8,0,0.00,,,0.00,WUHU216PEETBRO,2013-02-12 06:43:00,
2013-02-12 00:48:00,51.0,0.0,0.00,East,83,4.8,10.0,0,0.00,,,0.00,WUHU216PEETBRO,2013-02-12 06:48:00,
2013-02-12 00:54:00,51.1,0.0,0.00,NNW,347,4.7,10.0,0,0.00,,,0.00,WUHU216PEETBRO,2013-02-12 06:54:00,
2013-02-12 00:59:00,50.9,0.0,0.00,North,11,8.1,8.1,0,0.00,,,0.00,WUHU216PEETBRO,2013-02-12 06:59:00,
2013-02-12 01:04:00,51.1,0.0,0.00,NNE,21,7.0,9.6,0,0.00,,,0.00,WUHU216PEETBRO,2013-02-12 07:04:00,
2013-02-12 01:09:00,51.0,0.0,0.00,SE,125,7.5,13.0,0,0.00,,,0.00,WUHU216PEETBRO,2013-02-12 07:09:00,
2013-02-12 01:14:00,50.9,0.0,0.00,NNE,23,8.9,13.0,0,0.00,,,0.00,WUHU216PEETBRO,2013-02-12 07:14:00,
2013-02-12 01:19:00,50.9,0.0,0.00,East,87,7.0,12.4,0,0.00,,,0.00,WUHU216PEETBRO,2013-02-12 07:19:00,
2013-02-12 01:24:00,50.9,0.0,0.00,East,80,4.0,10.6,0,0.00,,,0.00,WUHU216PEETBRO,2013-02-12 07:24:00,
2013-02-12 01:29:00,51.1,0.0,0.00,SE,143,5.2,8.7,0,0.00,,,0.00,WUHU216PEETBRO,2013-02-12 07:29:00,
2013-02-12 01:34:00,50.9,0.0,0.00,ENE,77,2.9,8.5,0,0.00,,,0.00,WUHU216PEETBRO,2013-02-12 07:34:00,
2013-02-12 01:39:00,51.1,0.0,0.00,North,1,4.1,8.5,0,0.00,,,0.00,WUHU216PEETBRO,2013-02-12 07:39:00,
2013-02-12 01:44:00,51.4,0.0,0.00,ESE,103,4.5,7.4,0,0.00,,,0.00,WUHU216PEETBRO,2013-02-12 07:44:00,
2013-02-12 01:49:00,51.7,0.0,0.00,North,11,4.8,10.8,0,0.00,,,0.00,WUHU216PEETBRO,2013-02-12 07:49:00,
2013-02-12 01:54:00,51.4,0.0,0.00,East,97,3.7,10.8,0,0.00,,,0.00,WUHU216PEETBRO,2013-02-12 07:54:00,
2013-02-12 01:59:00,51.8,0.0,0.00,NNE,12,1.7,10.5,0,0.00,,,0.00,WUHU216PEETBRO,2013-02-12 07:59:00,
2013-02-12 02:04:00,51.4,0.0,0.00,NE,38,2.8,10.5,0,0.00,,,0.00,WUHU216PEETBRO,2013-02-12 08:04:00,
2013-02-12 02:09:00,51.7,0.0,0.00,East,97,7.4,8.7,0,0.00,,,0.00,WUHU216PEETBRO,2013-02-12 08:09:00,
2013-02-12 02:14:00,51.7,0.0,0.00,ENE,73,4.6,8.7,0,0.00,,,0.00,WUHU216PEETBRO,2013-02-12 08:14:00,
2013-02-12 02:19:00,51.4,0.0,0.00,East,90,5.2,8.7,0,0.00,,,0.00,WUHU216PEETBRO,2013-02-12 08:19:00,
2013-02-12 02:24:00,51.7,0.0,0.00,ENE,60,4.1,8.9,0,0.00,,,0.00,WUHU216PEETBRO,2013-02-12 08:24:00,
2013-02-12 02:29:00,51.4,0.0,0.00,ESE,117,7.5,8.9,0,0.00,,,0.00,WUHU216PEETBRO,2013-02-12 08:29:00,
2013-02-12 02:34:00,51.7,0.0,0.00,NE,55,8.0,8.8,0,0.00,,,0.00,WUHU216PEETBRO,2013-02-12 08:34:00,
2013-02-12 02:39:00,51.7,0.0,0.00,ENE,66,3.4,10.2,0,0.00,,,0.00,WUHU216PEETBRO,2013-02-12 08:39:00,
2013-02-12 02:44:00,51.7,0.0,0.00,ESE,110,2.4,10.2,0,0.00,,,0.00,WUHU216PEETBRO,2013-02-12 08:44:00,
2013-02-12 02:49:00,51.7,0.0,0.00,East,88,4.1,8.2,0,0.00,,,0.00,WUHU216PEETBRO,2013-02-12 08:49:00,
2013-02-12 02:54:00,51.7,0.0,0.00,ESE,122,3.5,9.0,0,0.00,,,0.00,WUHU216PEETBRO,2013-02-12 08:54:00,
2013-02-12 02:59:00,51.7,0.0,0.00,ENE,63,6.2,12.9,0,0.00,,,0.00,WUHU216PEETBRO,2013-02-12 08:59:00,
2013-02-12 03:04:00,51.7,0.0,0.00,SE,143,8.8,12.9,0,0.00,,,0.00,WUHU216PEETBRO,2013-02-12 09:04:00,
2013-02-12 03:09:00,51.9,0.0,0.00,SE,134,6.7,9.6,0,0.00,,,0.00,WUHU216PEETBRO,2013-02-12 09:09:00,
2013-02-12 03:14:00,51.7,0.0,0.00,ENE,62,5.3,9.3,0,0.00,,,0.00,WUHU216PEETBRO,2013-02-12 09:14:00,
2013-02-12 03:19:00,51.7,0.0,0.00,ESE,107,8.1,10.4,0,0.00,,,0.00,WUHU216PEETBRO,2013-02-12 09:19:00,
2013-02-12 03:24:00,51.7,0.0,0.00,SE,141,5.3,10.4,0,0.00,,,0.00,WUHU216PEETBRO,2013-02-12 09:24:00,
2013-02-12 03:29:00,51.4,0.0,0.00,East,100,3.7,8.8,0,0.00,,,0.00,WUHU216PEETBRO,2013-02-12 09:29:00,
2013-02-12 03:34:00,51.7,0.0,0.00,ESE,114,3.9,9.3,0,0.00,,,0.00,WUHU216PEETBRO,2013-02-12 09:34:00,
2013-02-12 03:39:00,51.7,0.0,0.00,East,95,5.2,9.3,0,0.00,,,0.00,WUHU216PEETBRO,2013-02-12 09:39:00,
2013-02-12 03:44:00,51.9,0.0,0.00,ENE,71,6.2,10.1,0,0.00,,,0.00,WUHU216PEETBRO,2013-02-12 09:44:00,
2013-02-12 03:49:00,51.4,0.0,0.00,SE,136,4.4,10.1,0,0.00,,,0.00,WUHU216PEETBRO,2013-02-12 09:49:00,
2013-02-12 03:54:00,51.9,0.0,0.00,SE,141,3.0,10.1,0,0.00,,,0.00,WUHU216PEETBRO,2013-02-12 09:54:00,
2013-02-12 03:59:00,51.9,0.0,0.00,ESE,115,8.6,10.1,0,0.00,,,0.00,WUHU216PEETBRO,2013-02-12 09:59:00,
2013-02-12 04:04:00,51.7,0.0,0.00,SSE,153,4.8,8.9,0,0.00,,,0.00,WUHU216PEETBRO,2013-02-12 10:04:00,
2013-02-12 04:08:00,51.7,0.0,0.00,ESE,110,5.1,8.9,0,0.00,,,0.00,WUHU216PEETBRO,2013-02-12 10:08:00,
2013-02-12 04:13:00,51.9,0.0,0.00,SE,127,4.7,10.4,0,0.00,,,0.00,WUHU216PEETBRO,2013-02-12 10:13:00,
2013-02-12 04:18:00,51.7,0.0,0.00,ESE,119,5.4,10.4,0,0.00,,,0.00,WUHU216PEETBRO,2013-02-12 10:18:00,
2013-02-12 04:23:00,51.7,0.0,0.00,SE,124,6.2,10.1,0,0.00,,,0.00,WUHU216PEETBRO,2013-02-12 10:23:00,
2013-02-12 04:28:00,51.7,0.0,0.00,ENE,76,3.5,10.1,0,0.00,,,0.00,WUHU216PEETBRO,2013-02-12 10:28:00,
2013-02-12 04:33:00,51.9,0.0,0.00,SSE,149,2.9,10.1,0,0.00,,,0.00,WUHU216PEETBRO,2013-02-12 10:33:00,
2013-02-12 04:38:00,51.7,0.0,0.00,SSW,204,0.8,5.7,0,0.00,,,0.00,WUHU216PEETBRO,2013-02-12 10:38:00,
2013-02-12 04:43:00,51.9,0.0,0.00,ESE,104,3.2,5.7,0,0.00,,,0.00,WUHU216PEETBRO,2013-02-12 10:43:00,
2013-02-12 04:48:00,52.2,0.0,0.00,ENE,76,4.5,6.8,0,0.00,,,0.00,WUHU216PEETBRO,2013-02-12 10:48:00,
2013-02-12 04:53:00,51.9,0.0,0.00,ENE,57,3.2,6.8,0,0.00,,,0.00,WUHU216PEETBRO,2013-02-12 10:53:00,
2013-02-12 04:58:00,51.7,0.0,0.00,East,95,3.6,6.1,0,0.00,,,0.00,WUHU216PEETBRO,2013-02-12 10:58:00,
2013-02-12 05:03:00,50.9,0.0,0.00,SSE,155,3.7,6.2,0,0.01,,,0.01,WUHU216PEETBRO,2013-02-12 11:03:00,
2013-02-12 05:08:00,51.4,0.0,0.00,East,88,4.6,7.1,0,0.01,,,0.01,WUHU216PEETBRO,2013-02-12 11:08:00,
2013-02-12 05:13:00,50.9,0.0,0.00,East,79,4.9,7.1,0,0.01,,,0.01,WUHU216PEETBRO,2013-02-12 11:13:00,
2013-02-12 05:18:00,50.9,0.0,0.00,ESE,103,4.8,7.0,0,0.02,,,0.02,WUHU216PEETBRO,2013-02-12 11:18:00,
2013-02-12 05:23:00,50.9,0.0,0.00,East,93,3.4,8.1,0,0.02,,,0.02,WUHU216PEETBRO,2013-02-12 11:23:00,
2013-02-12 05:28:00,50.9,0.0,0.00,SE,129,4.3,8.1,0,0.02,,,0.02,WUHU216PEETBRO,2013-02-12 11:28:00,
2013-02-12 05:33:00,51.0,0.0,0.00,East,98,5.7,10.3,0,0.02,,,0.02,WUHU216PEETBRO,2013-02-12 11:33:00,
2013-02-12 05:38:00,50.9,0.0,0.00,East,98,5.5,10.3,0,0.02,,,0.02,WUHU216PEETBRO,2013-02-12 11:38:00,
2013-02-12 05:43:00,51.1,0.0,0.00,East,88,2.4,9.7,0,0.02,,,0.02,WUHU216PEETBRO,2013-02-12 11:43:00,
2013-02-12 05:48:00,50.9,0.0,0.00,ENE,74,3.4,7.3,0,0.02,,,0.02,WUHU216PEETBRO,2013-02-12 11:48:00,
2013-02-12 05:53:00,51.1,0.0,0.00,NE,55,0.5,6.5,0,0.02,,,0.02,WUHU216PEETBRO,2013-02-12 11:53:00,
2013-02-12 05:58:00,51.4,0.0,0.00,North,11,3.2,4.7,0,0.02,,,0.02,WUHU216PEETBRO,2013-02-12 11:58:00,
2013-02-12 06:03:00,51.4,0.0,0.00,North,2,3.5,4.9,0,0.02,,,0.03,WUHU216PEETBRO,2013-02-12 12:03:00,
2013-02-12 06:08:00,51.4,0.0,0.00,ENE,62,1.0,6.4,0,0.02,,,0.03,WUHU216PEETBRO,2013-02-12 12:08:00,
2013-02-12 06:13:00,51.4,0.0,0.00,ESE,115,2.7,6.4,0,0.02,,,0.03,WUHU216PEETBRO,2013-02-12 12:13:00,
2013-02-12 06:18:00,51.1,0.0,0.00,East,97,4.3,6.1,0,0.01,,,0.03,WUHU216PEETBRO,2013-02-12 12:18:00,
2013-02-12 06:23:00,51.1,0.0,0.00,NNE,29,4.4,8.5,0,0.01,,,0.03,WUHU216PEETBRO,2013-02-12 12:23:00,
2013-02-12 06:34:00,51.0,0.0,0.00,East,94,4.7,7.3,0,0.04,,,0.06,WUHU216PEETBRO,2013-02-12 12:34:00,
2013-02-12 06:39:00,51.4,0.0,0.00,East,100,6.3,7.3,0,0.09,,,0.11,WUHU216PEETBRO,2013-02-12 12:39:00,
2013-02-12 06:44:00,51.1,0.0,0.00,ESE,111,5.1,8.6,0,0.11,,,0.13,WUHU216PEETBRO,2013-02-12 12:44:00,
2013-02-12 06:49:00,51.4,0.0,0.00,ESE,115,4.7,8.6,0,0.12,,,0.14,WUHU216PEETBRO,2013-02-12 12:49:00,
2013-02-12 06:54:00,51.7,0.0,0.00,SE,145,2.0,7.1,0,0.14,,,0.16,WUHU216PEETBRO,2013-02-12 12:54:00,
2013-02-12 06:59:00,51.7,0.0,0.00,NW,306,1.6,7.1,0,0.16,,,0.18,WUHU216PEETBRO,2013-02-12 12:59:00,
2013-02-12 07:04:00,51.9,0.0,0.00,NNW,331,0.6,5.0,0,0.17,,,0.20,WUHU216PEETBRO,2013-02-12 13:04:00,
2013-02-12 07:09:00,51.7,0.0,0.00,NNW,330,2.7,6.2,0,0.34,,,0.37,WUHU216PEETBRO,2013-02-12 13:09:00,
2013-02-12 07:14:00,51.7,0.0,0.00,East,98,6.6,8.8,0,0.39,,,0.42,WUHU216PEETBRO,2013-02-12 13:14:00,
2013-02-12 07:19:00,51.7,0.0,0.00,SE,145,4.5,9.9,0,0.49,,,0.52,WUHU216PEETBRO,2013-02-12 13:19:00,
2013-02-12 07:24:00,52.2,0.0,0.00,ESE,112,7.7,9.9,0,0.65,,,0.69,WUHU216PEETBRO,2013-02-12 13:24:00,
2013-02-12 07:29:00,52.4,0.0,0.00,ESE,122,10.8,10.8,0,0.70,,,0.75,WUHU216PEETBRO,2013-02-12 13:29:00,
2013-02-12 07:34:00,52.4,0.0,0.00,SSE,160,3.1,10.8,0,0.69,,,0.76,WUHU216PEETBRO,2013-02-12 13:34:00,
2013-02-12 07:39:00,52.9,0.0,0.00,ESE,104,6.6,10.2,0,0.65,,,0.76,WUHU216PEETBRO,2013-02-12 13:39:00,
2013-02-12 07:44:00,53.2,0.0,0.00,ESE,103,9.4,10.5,0,0.64,,,0.77,WUHU216PEETBRO,2013-02-12 13:44:00,
2013-02-12 07:49:00,53.1,0.0,0.00,SE,143,3.0,10.5,0,0.63,,,0.77,WUHU216PEETBRO,2013-02-12 13:49:00,
2013-02-12 07:54:00,52.9,0.0,0.00,East,80,3.5,9.8,0,0.61,,,0.77,WUHU216PEETBRO,2013-02-12 13:54:00,
2013-02-12 07:59:00,53.3,0.0,0.00,ENE,66,2.7,9.8,0,0.59,,,0.77,WUHU216PEETBRO,2013-02-12 13:59:00,
2013-02-12 08:04:00,53.3,0.0,0.00,ENE,62,4.6,7.9,0,0.57,,,0.77,WUHU216PEETBRO,2013-02-12 14:04:00,
2013-02-12 08:09:00,53.5,0.0,0.00,ESE,122,3.0,7.4,0,0.40,,,0.77,WUHU216PEETBRO,2013-02-12 14:09:00,
2013-02-12 08:14:00,53.5,0.0,0.00,East,98,8.6,10.1,0,0.35,,,0.77,WUHU216PEETBRO,2013-02-12 14:14:00,
2013-02-12 08:19:00,53.5,0.0,0.00,SE,141,6.1,10.1,0,0.25,,,0.77,WUHU216PEETBRO,2013-02-12 14:19:00,
2013-02-12 08:24:00,53.8,0.0,0.00,ENE,64,4.1,11.0,0,0.09,,,0.78,WUHU216PEETBRO,2013-02-12 14:24:00,
2013-02-12 08:29:00,53.5,0.0,0.00,East,100,4.4,11.0,0,0.08,,,0.83,WUHU216PEETBRO,2013-02-12 14:29:00,
2013-02-12 08:34:00,54.1,0.0,0.00,East,100,6.3,12.7,0,0.09,,,0.85,WUHU216PEETBRO,2013-02-12 14:34:00,
2013-02-12 08:39:00,54.1,0.0,0.00,SE,136,7.5,12.7,0,0.09,,,0.85,WUHU216PEETBRO,2013-02-12 14:39:00,
2013-02-12 08:44:00,54.2,0.0,0.00,SE,125,3.0,12.7,0,0.10,,,0.87,WUHU216PEETBRO,2013-02-12 14:44:00,
2013-02-12 08:49:00,54.3,0.0,0.00,South,173,2.5,13.2,0,0.10,,,0.87,WUHU216PEETBRO,2013-02-12 14:49:00,
2013-02-12 08:54:00,54.3,0.0,0.00,ESE,107,3.8,13.2,0,0.10,,,0.87,WUHU216PEETBRO,2013-02-12 14:54:00,
2013-02-12 08:59:00,54.3,0.0,0.00,East,101,5.7,11.1,0,0.10,,,0.87,WUHU216PEETBRO,2013-02-12 14:59:00,
2013-02-12 09:04:00,54.3,0.0,0.00,South,186,3.5,11.8,0,0.10,,,0.87,WUHU216PEETBRO,2013-02-12 15:04:00,
2013-02-12 09:09:00,54.6,0.0,0.00,ESE,104,2.8,13.0,0,0.10,,,0.87,WUHU216PEETBRO,2013-02-12 15:09:00,
2013-02-12 09:14:00,54.6,0.0,0.00,SE,138,4.0,13.0,0,0.10,,,0.87,WUHU216PEETBRO,2013-02-12 15:14:00,
2013-02-12 09:19:00,54.3,0.0,0.00,SE,132,4.8,12.5,0,0.11,,,0.88,WUHU216PEETBRO,2013-02-12 15:19:00,
2013-02-12 09:24:00,55.1,0.0,0.00,SSW,208,2.7,9.1,0,0.10,,,0.88,WUHU216PEETBRO,2013-02-12 15:24:00,
2013-02-12 09:29:00,55.1,0.0,0.00,East,81,4.7,10.1,0,0.05,,,0.88,WUHU216PEETBRO,2013-02-12 15:29:00,
2013-02-12 09:34:00,55.1,0.0,0.00,SE,127,6.4,14.9,0,0.03,,,0.88,WUHU216PEETBRO,2013-02-12 15:34:00,
2013-02-12 09:39:00,55.1,0.0,0.00,SE,145,8.0,14.9,0,0.03,,,0.88,WUHU216PEETBRO,2013-02-12 15:39:00,
2013-02-12 09:44:00,55.1,0.0,0.00,East,98,7.1,11.9,0,0.01,,,0.88,WUHU216PEETBRO,2013-02-12 15:44:00,
2013-02-12 09:49:00,55.1,0.0,0.00,SE,134,9.0,14.4,0,0.01,,,0.88,WUHU216PEETBRO,2013-02-12 15:49:00,
2013-02-12 09:54:00,55.1,0.0,0.00,NE,49,10.8,14.4,0,0.01,,,0.88,WUHU216PEETBRO,2013-02-12 15:54:00,
2013-02-12 09:59:00,54.6,0.0,0.00,NE,38,11.2,16.8,0,0.01,,,0.88,WUHU216PEETBRO,2013-02-12 15:59:00,
2013-02-12 10:04:00,55.1,0.0,0.00,ESE,114,8.9,16.8,0,0.01,,,0.88,WUHU216PEETBRO,2013-02-12 16:04:00,
2013-02-12 10:09:00,55.4,0.0,0.00,NE,38,3.9,15.2,0,0.01,,,0.88,WUHU216PEETBRO,2013-02-12 16:09:00,
2013-02-12 10:14:00,55.1,0.0,0.00,ESE,111,8.8,17.3,0,0.01,,,0.88,WUHU216PEETBRO,2013-02-12 16:14:00,
2013-02-12 10:19:00,54.6,0.0,0.00,SSW,204,3.8,17.3,0,0.00,,,0.88,WUHU216PEETBRO,2013-02-12 16:19:00,
2013-02-12 10:24:00,54.3,0.0,0.00,ESE,118,3.7,15.0,0,0.00,,,0.88,WUHU216PEETBRO,2013-02-12 16:24:00,
2013-02-12 10:29:00,54.9,0.0,0.00,ENE,66,3.0,7.2,0,0.00,,,0.88,WUHU216PEETBRO,2013-02-12 16:29:00,
2013-02-12 10:34:00,54.9,0.0,0.00,South,175,0.0,5.3,0,0.00,,,0.88,WUHU216PEETBRO,2013-02-12 16:34:00,
2013-02-12 10:39:00,54.6,0.0,0.00,WNW,289,1.5,5.7,0,0.01,,,0.89,WUHU216PEETBRO,2013-02-12 16:39:00,
2013-02-12 10:44:00,55.1,0.0,0.00,WNW,286,0.0,5.7,0,0.01,,,0.89,WUHU216PEETBRO,2013-02-12 16:44:00,
2013-02-12 10:49:00,54.6,0.0,0.00,North,8,0.0,1.6,0,0.01,,,0.89,WUHU216PEETBRO,2013-02-12 16:49:00,
2013-02-12 10:54:00,55.1,0.0,0.00,East,94,3.5,6.5,0,0.01,,,0.89,WUHU216PEETBRO,2013-02-12 16:54:00,
2013-02-12 10:59:00,55.1,0.0,0.00,SE,136,1.6,6.5,0,0.01,,,0.89,WUHU216PEETBRO,2013-02-12 16:59:00,
2013-02-12 11:04:00,54.9,0.0,0.00,NE,35,0.7,5.8,0,0.01,,,0.89,WUHU216PEETBRO,2013-02-12 17:04:00,
2013-02-12 11:09:00,55.1,0.0,0.00,East,81,2.3,4.7,0,0.02,,,0.90,WUHU216PEETBRO,2013-02-12 17:09:00,
2013-02-12 11:14:00,55.1,0.0,0.00,NE,36,0.6,4.2,0,0.02,,,0.90,WUHU216PEETBRO,2013-02-12 17:14:00,
2013-02-12 11:19:00,55.1,0.0,0.00,NNE,32,0.0,4.4,0,0.02,,,0.90,WUHU216PEETBRO,2013-02-12 17:19:00,
2013-02-12 11:24:00,55.1,0.0,0.00,East,87,4.3,4.4,0,0.02,,,0.90,WUHU216PEETBRO,2013-02-12 17:24:00,
2013-02-12 11:29:00,55.1,0.0,0.00,ESE,103,5.2,6.2,0,0.02,,,0.90,WUHU216PEETBRO,2013-02-12 17:29:00,
2013-02-12 11:34:00,55.1,0.0,0.00,East,91,4.9,6.2,0,0.02,,,0.90,WUHU216PEETBRO,2013-02-12 17:34:00,
2013-02-12 11:39:00,55.1,0.0,0.00,ENE,67,2.6,5.7,0,0.01,,,0.90,WUHU216PEETBRO,2013-02-12 17:39:00,
2013-02-12 11:44:00,55.1,0.0,0.00,NNE,21,2.4,5.5,0,0.01,,,0.90,WUHU216PEETBRO,2013-02-12 17:44:00,
2013-02-12 11:49:00,55.1,0.0,0.00,NNE,22,0.0,4.2,0,0.01,,,0.90,WUHU216PEETBRO,2013-02-12 17:49:00,
2013-02-12 11:54:00,55.1,0.0,0.00,NNE,32,0.0,4.2,0,0.01,,,0.90,WUHU216PEETBRO,2013-02-12 17:54:00,
2013-02-12 11:59:00,55.4,0.0,0.00,NE,45,2.3,4.0,0,0.01,,,0.90,WUHU216PEETBRO,2013-02-12 17:59:00,
2013-02-12 12:04:00,55.9,0.0,0.00,ENE,64,1.9,4.0,0,0.01,,,0.90,WUHU216PEETBRO,2013-02-12 18:04:00,
2013-02-12 12:09:00,55.9,0.0,0.00,ESE,115,0.7,3.5,0,0.00,,,0.90,WUHU216PEETBRO,2013-02-12 18:09:00,
2013-02-12 12:14:00,55.1,0.0,0.00,SE,135,2.4,4.7,0,0.00,,,0.90,WUHU216PEETBRO,2013-02-12 18:14:00,
2013-02-12 12:19:00,55.9,0.0,0.00,ESE,114,3.0,4.7,0,0.00,,,0.90,WUHU216PEETBRO,2013-02-12 18:19:00,
2013-02-12 12:24:00,55.9,0.0,0.00,ENE,73,2.8,4.9,0,0.00,,,0.90,WUHU216PEETBRO,2013-02-12 18:24:00,
2013-02-12 12:29:00,55.9,0.0,0.00,East,90,4.7,4.9,0,0.00,,,0.90,WUHU216PEETBRO,2013-02-12 18:29:00,
2013-02-12 12:34:00,56.2,0.0,0.00,NE,55,0.0,5.6,0,0.00,,,0.90,WUHU216PEETBRO,2013-02-12 18:34:00,
2013-02-12 12:39:00,55.9,0.0,0.00,NW,317,3.7,7.6,0,0.00,,,0.90,WUHU216PEETBRO,2013-02-12 18:39:00,
2013-02-12 12:44:00,55.7,0.0,0.00,NNW,335,4.6,9.5,0,0.00,,,0.90,WUHU216PEETBRO,2013-02-12 18:44:00,
2013-02-12 12:49:00,55.7,0.0,0.00,East,100,4.1,9.5,0,0.01,,,0.91,WUHU216PEETBRO,2013-02-12 18:49:00,
2013-02-12 12:54:00,55.1,0.0,0.00,NNE,19,1.7,4.9,0,0.01,,,0.91,WUHU216PEETBRO,2013-02-12 18:54:00,
2013-02-12 12:59:00,55.4,0.0,0.00,ENE,73,1.7,4.8,0,0.01,,,0.91,WUHU216PEETBRO,2013-02-12 18:59:00,
2013-02-12 13:04:00,55.9,0.0,0.00,ESE,110,1.6,4.2,0,0.02,,,0.92,WUHU216PEETBRO,2013-02-12 19:04:00,
2013-02-12 13:09:00,55.4,0.0,0.00,East,88,0.9,5.9,0,0.02,,,0.92,WUHU216PEETBRO,2013-02-12 19:09:00,
2013-02-12 13:14:00,55.8,0.0,0.00,SE,128,2.9,5.9,0,0.02,,,0.92,WUHU216PEETBRO,2013-02-12 19:14:00,
2013-02-12 13:19:00,55.1,0.0,0.00,East,95,3.4,4.8,0,0.02,,,0.92,WUHU216PEETBRO,2013-02-12 19:19:00,
2013-02-12 13:24:00,55.9,0.0,0.00,NE,46,0.0,5.8,0,0.02,,,0.92,WUHU216PEETBRO,2013-02-12 19:24:00,
2013-02-12 13:29:00,55.9,0.0,0.00,North,354,0.0,5.8,0,0.02,,,0.92,WUHU216PEETBRO,2013-02-12 19:29:00,
2013-02-12 13:34:00,55.7,0.0,0.00,NNE,22,1.2,3.8,0,0.02,,,0.92,WUHU216PEETBRO,2013-02-12 19:34:00,
2013-02-12 13:39:00,55.1,0.0,0.00,ESE,104,2.8,4.6,0,0.02,,,0.92,WUHU216PEETBRO,2013-02-12 19:39:00,
2013-02-12 13:44:00,55.4,0.0,0.00,ENE,60,4.2,5.7,0,0.04,,,0.94,WUHU216PEETBRO,2013-02-12 19:44:00,
2013-02-12 13:49:00,55.9,0.0,0.00,East,79,3.2,5.7,0,0.04,,,0.95,WUHU216PEETBRO,2013-02-12 19:49:00,
2013-02-12 13:54:00,56.2,0.0,0.00,ESE,121,2.2,4.8,0,0.04,,,0.95,WUHU216PEETBRO,2013-02-12 19:54:00,
2013-02-12 13:59:00,56.2,0.0,0.00,ESE,105,2.5,4.4,0,0.04,,,0.95,WUHU216PEETBRO,2013-02-12 19:59:00,
2013-02-12 14:04:00,55.9,0.0,0.00,SSE,160,2.1,6.0,0,0.03,,,0.95,WUHU216PEETBRO,2013-02-12 20:04:00,
2013-02-12 14:09:00,55.4,0.0,0.00,ESE,108,0.7,6.0,0,0.03,,,0.95,WUHU216PEETBRO,2013-02-12 20:09:00,
2013-02-12 14:14:00,55.9,0.0,0.00,ENE,69,0.7,5.8,0,0.03,,,0.95,WUHU216PEETBRO,2013-02-12 20:14:00,
2013-02-12 14:19:00,55.1,0.0,0.00,NE,46,0.4,4.3,0,0.03,,,0.95,WUHU216PEETBRO,2013-02-12 20:19:00,
2013-02-12 14:24:00,55.4,0.0,0.00,SE,135,2.2,4.7,0,0.03,,,0.95,WUHU216PEETBRO,2013-02-12 20:24:00,
2013-02-12 14:29:00,55.9,0.0,0.00,East,97,0.0,5.4,0,0.03,,,0.95,WUHU216PEETBRO,2013-02-12 20:29:00,
2013-02-12 14:34:00,55.4,0.0,0.00,NNE,31,5.2,7.4,0,0.03,,,0.95,WUHU216PEETBRO,2013-02-12 20:34:00,
2013-02-12 14:39:00,55.3,0.0,0.00,NNE,16,0.0,9.6,0,0.03,,,0.95,WUHU216PEETBRO,2013-02-12 20:39:00,
2013-02-12 14:44:00,55.4,0.0,0.00,NNE,19,2.6,9.6,0,0.01,,,0.95,WUHU216PEETBRO,2013-02-12 20:44:00,
2013-02-12 14:49:00,55.7,0.0,0.00,North,9,3.5,5.6,0,0.00,,,0.95,WUHU216PEETBRO,2013-02-12 20:49:00,
2013-02-12 14:54:00,55.4,0.0,0.00,North,359,4.1,5.9,0,0.00,,,0.95,WUHU216PEETBRO,2013-02-12 20:54:00,
2013-02-12 14:59:00,55.9,0.0,0.00,North,8,2.2,5.9,0,0.00,,,0.95,WUHU216PEETBRO,2013-02-12 20:59:00,
2013-02-12 15:04:00,55.9,0.0,0.00,South,183,0.0,4.9,0,0.00,,,0.95,WUHU216PEETBRO,2013-02-12 21:04:00,
2013-02-12 15:09:00,55.1,0.0,0.00,ENE,64,5.7,7.0,0,0.00,,,0.95,WUHU216PEETBRO,2013-02-12 21:09:00,
2013-02-12 15:14:00,54.6,0.0,0.00,North,354,8.0,9.8,0,0.00,,,0.95,WUHU216PEETBRO,2013-02-12 21:14:00,
2013-02-12 15:19:00,54.3,0.0,0.00,NNE,25,5.5,11.0,0,0.06,,,1.01,WUHU216PEETBRO,2013-02-12 21:19:00,
2013-02-12 15:24:00,53.8,0.0,0.00,WNW,303,11.3,11.4,0,0.18,,,1.13,WUHU216PEETBRO,2013-02-12 21:24:00,
2013-02-12 15:29:00,53.5,0.0,0.00,NNE,21,5.3,11.4,0,0.23,,,1.18,WUHU216PEETBRO,2013-02-12 21:29:00,
2013-02-12 15:34:00,53.8,0.0,0.00,North,359,3.7,11.4,0,0.24,,,1.19,WUHU216PEETBRO,2013-02-12 21:34:00,
2013-02-12 15:39:00,52.9,0.0,0.00,NNE,12,5.2,8.5,0,0.24,,,1.19,WUHU216PEETBRO,2013-02-12 21:39:00,
2013-02-12 15:44:00,53.1,0.0,0.00,North,5,4.3,8.5,0,0.24,,,1.19,WUHU216PEETBRO,2013-02-12 21:44:00,
2013-02-12 15:49:00,52.9,0.0,0.00,North,357,3.5,6.6,0,0.25,,,1.20,WUHU216PEETBRO,2013-02-12 21:49:00,
2013-02-12 15:54:00,53.2,0.0,0.00,NNW,348,1.1,7.2,0,0.25,,,1.20,WUHU216PEETBRO,2013-02-12 21:54:00,
2013-02-12 15:59:00,52.9,0.0,0.00,North,5,3.5,7.4,0,0.25,,,1.20,WUHU216PEETBRO,2013-02-12 21:59:00,
2013-02-12 16:04:00,53.1,0.0,0.00,North,2,5.7,8.3,0,0.25,,,1.20,WUHU216PEETBRO,2013-02-12 22:04:00,
2013-02-12 16:09:00,53.1,0.0,0.00,North,351,2.7,8.3,0,0.25,,,1.20,WUHU216PEETBRO,2013-02-12 22:09:00,
2013-02-12 16:14:00,53.1,0.0,0.00,North,4,3.4,7.4,0,0.25,,,1.20,WUHU216PEETBRO,2013-02-12 22:14:00,
2013-02-12 16:19:00,53.0,0.0,0.00,NW,310,3.4,8.3,0,0.19,,,1.20,WUHU216PEETBRO,2013-02-12 22:19:00,
2013-02-12 16:24:00,52.8,0.0,0.00,NNW,338,8.5,11.7,0,0.07,,,1.20,WUHU216PEETBRO,2013-02-12 22:24:00,
2013-02-12 16:29:00,52.7,0.0,0.00,North,358,7.8,11.7,0,0.02,,,1.20,WUHU216PEETBRO,2013-02-12 22:29:00,
2013-02-12 16:34:00,52.8,0.0,0.00,NNE,15,6.2,9.3,0,0.01,,,1.20,WUHU216PEETBRO,2013-02-12 22:34:00,
2013-02-12 16:39:00,52.7,0.0,0.00,NNW,343,3.2,9.3,0,0.01,,,1.20,WUHU216PEETBRO,2013-02-12 22:39:00,
2013-02-12 16:44:00,52.4,0.0,0.00,North,351,3.5,8.8,0,0.01,,,1.20,WUHU216PEETBRO,2013-02-12 22:44:00,
2013-02-12 16:49:00,52.4,0.0,0.00,NNE,16,3.1,6.7,0,0.00,,,1.20,WUHU216PEETBRO,2013-02-12 22:49:00,
2013-02-12 16:54:00,52.4,0.0,0.00,NNE,32,4.2,7.9,0,0.00,,,1.20,WUHU216PEETBRO,2013-02-12 22:54:00,
2013-02-12 16:59:00,52.4,0.0,0.00,NE,42,1.8,7.9,0,0.00,,,1.20,WUHU216PEETBRO,2013-02-12 22:59:00,
2013-02-12 17:04:00,52.4,0.0,0.00,ENE,57,2.3,7.8,0,0.00,,,1.20,WUHU216PEETBRO,2013-02-12 23:04:00,
2013-02-12 17:09:00,52.6,0.0,0.00,North,7,3.6,7.8,0,0.00,,,1.20,WUHU216PEETBRO,2013-02-12 23:09:00,
2013-02-12 17:14:00,52.7,0.0,0.00,NE,43,1.8,6.1,0,0.00,,,1.20,WUHU216PEETBRO,2013-02-12 23:14:00,
2013-02-12 17:19:00,52.2,0.0,0.00,NNE,12,4.8,7.5,0,0.00,,,1.20,WUHU216PEETBRO,2013-02-12 23:19:00,
2013-02-12 17:24:00,51.9,0.0,0.00,NNW,344,4.8,8.3,0,0.00,,,1.20,WUHU216PEETBRO,2013-02-12 23:24:00,
2013-02-12 17:29:00,51.8,0.0,0.00,NNE,18,5.6,8.3,0,0.00,,,1.20,WUHU216PEETBRO,2013-02-12 23:29:00,
2013-02-12 17:34:00,51.7,0.0,0.00,NW,306,3.7,7.3,0,0.00,,,1.20,WUHU216PEETBRO,2013-02-12 23:34:00,
2013-02-12 17:39:00,50.9,0.0,0.00,North,351,4.5,9.3,0,0.00,,,1.20,WUHU216PEETBRO,2013-02-12 23:39:00,
2013-02-12 17:44:00,50.9,0.0,0.00,WNW,282,2.5,9.3,0,0.00,,,1.20,WUHU216PEETBRO,2013-02-12 23:44:00,
2013-02-12 17:49:00,50.9,0.0,0.00,NNE,15,4.3,7.5,0,0.00,,,1.20,WUHU216PEETBRO,2013-02-12 23:49:00,
2013-02-12 17:54:00,50.9,0.0,0.00,North,4,3.5,6.1,0,0.00,,,1.20,WUHU216PEETBRO,2013-02-12 23:54:00,
2013-02-12 17:59:00,50.9,0.0,0.00,North,11,2.2,6.3,0,0.00,,,1.20,WUHU216PEETBRO,2013-02-12 23:59:00,
2013-02-12 18:04:00,50.9,0.0,0.00,ENE,60,3.7,6.3,0,0.00,,,1.20,WUHU216PEETBRO,2013-02-13 00:04:00,
2013-02-12 18:09:00,50.6,0.0,0.00,NNE,16,3.5,7.0,0,0.00,,,1.20,WUHU216PEETBRO,2013-02-13 00:09:00,
2013-02-12 18:14:00,50.6,0.0,0.00,North,354,3.2,7.0,0,0.00,,,1.20,WUHU216PEETBRO,2013-02-13 00:14:00,
2013-02-12 18:19:00,50.9,0.0,0.00,North,357,1.1,5.8,0,0.00,,,1.20,WUHU216PEETBRO,2013-02-13 00:19:00,
2013-02-12 18:24:00,50.1,0.0,0.00,North,4,4.9,6.3,0,0.00,,,1.20,WUHU216PEETBRO,2013-02-13 00:24:00,
2013-02-12 18:29:00,50.3,0.0,0.00,NNW,347,1.1,6.3,0,0.00,,,1.20,WUHU216PEETBRO,2013-02-13 00:29:00,
2013-02-12 18:34:00,50.6,0.0,0.00,NNW,348,1.5,5.7,0,0.00,,,1.20,WUHU216PEETBRO,2013-02-13 00:34:00,
2013-02-12 18:39:00,50.3,0.0,0.00,NNW,341,6.3,6.5,0,0.00,,,1.20,WUHU216PEETBRO,2013-02-13 00:39:00,
2013-02-12 18:44:00,50.3,0.0,0.00,NW,314,4.6,6.5,0,0.00,,,1.20,WUHU216PEETBRO,2013-02-13 00:44:00,
2013-02-12 18:49:00,50.1,0.0,0.00,NNW,334,2.2,7.2,0,0.00,,,1.20,WUHU216PEETBRO,2013-02-13 00:49:00,
2013-02-12 18:54:00,50.7,0.0,0.00,NNW,330,0.0,7.2,0,0.00,,,1.20,WUHU216PEETBRO,2013-02-13 00:54:00,
2013-02-12 18:59:00,50.1,0.0,0.00,NNE,22,0.0,3.9,0,0.00,,,1.20,WUHU216PEETBRO,2013-02-13 00:59:00,
2013-02-12 19:04:00,50.9,0.0,0.00,NW,317,2.2,3.9,0,0.00,,,1.20,WUHU216PEETBRO,2013-02-13 01:04:00,
2013-02-12 19:09:00,50.1,0.0,0.00,NW,316,6.6,6.6,0,0.00,,,1.20,WUHU216PEETBRO,2013-02-13 01:09:00,
2013-02-12 19:14:00,50.1,0.0,0.00,WNW,299,2.9,6.6,0,0.00,,,1.20,WUHU216PEETBRO,2013-02-13 01:14:00,
2013-02-12 19:19:00,49.8,0.0,0.00,NW,306,1.1,6.6,0,0.00,,,1.20,WUHU216PEETBRO,2013-02-13 01:19:00,
2013-02-12 19:24:00,50.1,0.0,0.00,NNW,345,2.0,5.3,0,0.00,,,1.20,WUHU216PEETBRO,2013-02-13 01:24:00,
2013-02-12 19:29:00,50.1,0.0,0.00,NNE,16,2.8,4.6,0,0.00,,,1.20,WUHU216PEETBRO,2013-02-13 01:29:00,
2013-02-12 19:34:00,50.2,0.0,0.00,NNW,337,2.0,5.4,0,0.00,,,1.20,WUHU216PEETBRO,2013-02-13 01:34:00,
2013-02-12 19:39:00,50.1,0.0,0.00,NW,319,3.9,5.4,0,0.00,,,1.20,WUHU216PEETBRO,2013-02-13 01:39:00,
2013-02-12 19:44:00,50.1,0.0,0.00,North,350,2.6,6.2,0,0.00,,,1.20,WUHU216PEETBRO,2013-02-13 01:44:00,
2013-02-12 19:49:00,50.3,0.0,0.00,NW,324,2.9,6.2,0,0.00,,,1.20,WUHU216PEETBRO,2013-02-13 01:49:00,
2013-02-12 19:54:00,50.6,0.0,0.00,NNW,334,4.3,5.7,0,0.00,,,1.20,WUHU216PEETBRO,2013-02-13 01:54:00,
2013-02-12 19:59:00,50.3,0.0,0.00,NNW,348,2.9,5.7,0,0.00,,,1.20,WUHU216PEETBRO,2013-02-13 01:59:00,
2013-02-12 20:04:00,50.3,0.0,0.00,WNW,283,2.3,5.6,0,0.00,,,1.20,WUHU216PEETBRO,2013-02-13 02:04:00,
2013-02-12 20:09:00,50.3,0.0,0.00,NNW,347,1.6,5.6,0,0.00,,,1.20,WUHU216PEETBRO,2013-02-13 02:09:00,
2013-02-12 20:14:00,50.5,0.0,0.00,NNW,338,3.5,5.5,0,0.00,,,1.20,WUHU216PEETBRO,2013-02-13 02:14:00,
2013-02-12 20:19:00,51.1,0.0,0.00,NW,307,0.7,4.3,0,0.00,,,1.20,WUHU216PEETBRO,2013-02-13 02:19:00,
2013-02-12 20:24:00,50.6,0.0,0.00,NNW,347,2.5,4.4,0,0.00,,,1.20,WUHU216PEETBRO,2013-02-13 02:24:00,
2013-02-12 20:29:00,50.6,0.0,0.00,NW,310,0.9,4.9,0,0.00,,,1.20,WUHU216PEETBRO,2013-02-13 02:29:00,
2013-02-12 20:34:00,50.5,0.0,0.00,NNW,335,1.1,5.4,0,0.00,,,1.20,WUHU216PEETBRO,2013-02-13 02:34:00,
2013-02-12 20:39:00,50.7,0.0,0.00,NW,316,2.6,5.4,0,0.00,,,1.20,WUHU216PEETBRO,2013-02-13 02:39:00,
2013-02-12 20:44:00,50.3,0.0,0.00,NW,317,2.2,4.5,0,0.00,,,1.20,WUHU216PEETBRO,2013-02-13 02:44:00,
2013-02-12 20:49:00,50.1,0.0,0.00,NNW,335,4.8,5.4,0,0.00,,,1.20,WUHU216PEETBRO,2013-02-13 02:49:00,
2013-02-12 20:54:00,50.6,0.0,0.00,NW,319,1.9,6.4,0,0.00,,,1.20,WUHU216PEETBRO,2013-02-13 02:54:00,
2013-02-12 20:59:00,50.3,0.0,0.00,WNW,299,3.2,7.5,0,0.00,,,1.20,WUHU216PEETBRO,2013-02-13 02:59:00,
2013-02-12 21:04:00,50.6,0.0,0.00,WSW,237,2.7,7.5,0,0.00,,,1.20,WUHU216PEETBRO,2013-02-13 03:04:00,
2013-02-12 21:09:00,50.7,0.0,0.00,NNW,343,5.7,7.1,0,0.00,,,1.20,WUHU216PEETBRO,2013-02-13 03:09:00,
2013-02-12 21:14:00,50.9,0.0,0.00,NW,307,2.4,7.1,0,0.00,,,1.20,WUHU216PEETBRO,2013-02-13 03:14:00,
2013-02-12 21:19:00,50.9,0.0,0.00,NNW,348,1.6,8.1,0,0.00,,,1.20,WUHU216PEETBRO,2013-02-13 03:19:00,
2013-02-12 21:24:00,50.9,0.0,0.00,NW,321,8.3,10.6,0,0.00,,,1.20,WUHU216PEETBRO,2013-02-13 03:24:00,
2013-02-12 21:29:00,50.9,0.0,0.00,NW,326,6.4,12.1,0,0.00,,,1.20,WUHU216PEETBRO,2013-02-13 03:29:00,
2013-02-12 21:34:00,50.3,0.0,0.00,NW,313,3.7,12.1,0,0.00,,,1.20,WUHU216PEETBRO,2013-02-13 03:34:00,
2013-02-12 21:39:00,50.9,0.0,0.00,NW,319,5.2,8.3,0,0.00,,,1.20,WUHU216PEETBRO,2013-02-13 03:39:00,
2013-02-12 21:44:00,51.0,0.0,0.00,NNW,344,2.4,8.2,0,0.00,,,1.20,WUHU216PEETBRO,2013-02-13 03:44:00,
2013-02-12 21:49:00,50.9,0.0,0.00,WNW,303,8.7,8.9,0,0.00,,,1.20,WUHU216PEETBRO,2013-02-13 03:49:00,
2013-02-12 21:54:00,50.9,0.0,0.00,NW,310,9.7,11.1,0,0.00,,,1.20,WUHU216PEETBRO,2013-02-13 03:54:00,
2013-02-12 21:59:00,50.9,0.0,0.00,NNW,344,8.1,11.1,0,0.00,,,1.20,WUHU216PEETBRO,2013-02-13 03:59:00,
2013-02-12 22:04:00,50.9,0.0,0.00,NNW,330,5.9,13.0,0,0.00,,,1.20,WUHU216PEETBRO,2013-02-13 04:04:00,
2013-02-12 22:09:00,50.6,0.0,0.00,North,354,2.3,13.0,0,0.00,,,1.20,WUHU216PEETBRO,2013-02-13 04:09:00,
2013-02-12 22:14:00,50.9,0.0,0.00,WNW,287,2.4,8.7,0,0.00,,,1.20,WUHU216PEETBRO,2013-02-13 04:14:00,
2013-02-12 22:19:00,50.9,0.0,0.00,NW,311,5.4,7.8,0,0.00,,,1.20,WUHU216PEETBRO,2013-02-13 04:19:00,
2013-02-12 22:24:00,50.9,0.0,0.00,NNW,340,4.5,7.8,0,0.00,,,1.20,WUHU216PEETBRO,2013-02-13 04:24:00,
2013-02-12 22:29:00,50.9,0.0,0.00,NW,306,5.0,6.4,0,0.00,,,1.20,WUHU216PEETBRO,2013-02-13 04:29:00,
2013-02-12 22:34:00,50.9,0.0,0.00,NW,319,4.1,6.3,0,0.00,,,1.20,WUHU216PEETBRO,2013-02-13 04:34:00,
2013-02-12 22:39:00,50.9,0.0,0.00,NNW,327,0.0,5.7,0,0.00,,,1.20,WUHU216PEETBRO,2013-02-13 04:39:00,
2013-02-12 22:44:00,50.9,0.0,0.00,WNW,286,2.0,5.5,0,0.00,,,1.20,WUHU216PEETBRO,2013-02-13 04:44:00,
2013-02-12 22:49:00,50.5,0.0,0.00,NNW,335,1.4,5.5,0,0.00,,,1.20,WUHU216PEETBRO,2013-02-13 04:49:00,
2013-02-12 22:54:00,49.6,0.0,0.00,NNW,334,0.5,1.7,0,0.00,,,1.20,WUHU216PEETBRO,2013-02-13 04:54:00,
2013-02-12 22:59:00,50.0,0.0,0.00,WNW,287,0.0,3.3,0,0.00,,,1.20,WUHU216PEETBRO,2013-02-13 04:59:00,
2013-02-12 23:00:00,50.0,0.0,0.00,NNW,330,1.3,3.3,0,0.00,,,1.20,WUHU216PEETBRO,2013-02-13 05:00:00,
2013-02-12 23:05:00,49.7,0.0,0.00,North,355,0.0,3.3,0,0.00,,,1.20,WUHU216PEETBRO,2013-02-13 05:05:00,
2013-02-12 23:10:00,49.7,0.0,0.00,North,8,1.9,4.1,0,0.00,,,1.20,WUHU216PEETBRO,2013-02-13 05:10:00,
2013-02-12 23:15:00,49.2,0.0,0.00,NW,319,1.7,4.8,0,0.00,,,1.20,WUHU216PEETBRO,2013-02-13 05:15:00,
2013-02-12 23:20:00,49.5,0.0,0.00,North,350,3.6,4.8,0,0.00,,,1.20,WUHU216PEETBRO,2013-02-13 05:20:00,
2013-02-12 23:25:00,48.9,0.0,0.00,NNW,343,2.4,5.9,0,0.00,,,1.20,WUHU216PEETBRO,2013-02-13 05:25:00,
2013-02-12 23:30:00,48.9,0.0,0.00,NNW,341,1.9,5.9,0,0.00,,,1.20,WUHU216PEETBRO,2013-02-13 05:30:00,
2013-02-12 23:35:00,48.9,0.0,0.00,North,351,0.0,3.5,0,0.00,,,1.20,WUHU216PEETBRO,2013-02-13 05:35:00,
2013-02-12 23:40:00,48.9,0.0,0.00,WNW,292,1.2,3.6,0,0.00,,,1.20,WUHU216PEETBRO,2013-02-13 05:40:00,
2013-02-12 23:45:00,48.9,0.0,0.00,WNW,283,0.0,3.6,0,0.00,,,1.20,WUHU216PEETBRO,2013-02-13 05:45:00,
2013-02-12 23:49:00,48.8,0.0,0.00,NW,311,2.2,3.9,0,0.00,,,1.20,WUHU216PEETBRO,2013-02-13 05:49:00,
2013-02-12 23:54:00,49.2,0.0,0.00,West,259,0.0,3.9,0,0.00,,,1.20,WUHU216PEETBRO,2013-02-13 05:54:00,
2013-02-12 23:59:00,49.7,0.0,0.00,West,261,0.5,3.2,0,0.00,,,1.20,WUHU216PEETBRO,2013-02-13 05:59:00,